Location: Caltech
(34.1382°N, 118.1253°W)
Time: 08:40:49
(UTC-07:00)

Cosmos 2251 Rocket - Visible Passes

Search period start: 24 June 2017 00:00
Search period end: 04 July 2017 00:00
Orbit: 765 x 792 km, 74.0° (Epoch: 23 June)

Date Brightness Start Highest point End Pass type
(mag) Time Alt. Az. Time Alt. Az. Time Alt. Az.
24 Jun 5.2 04:26:05 10° N 04:30:57 37° ENE 04:35:46 10° SE visible
25 Jun 6.0 03:52:45 10° NNE 03:56:53 23° ENE 04:00:59 10° ESE visible
26 Jun 6.4 03:19:58 10° NNE 03:22:43 14° ENE 03:25:27 10° E visible
26 Jun 3.6 05:00:14 10° NNW 05:05:25 61° WSW 05:10:33 10° S visible
27 Jun 3.6 04:26:16 10° NNW 04:31:34 80° ENE 04:36:47 10° SSE visible
28 Jun 4.5 03:52:33 10° N 03:57:38 47° ENE 04:02:39 10° SE visible
29 Jun 5.4 03:19:03 10° N 03:23:36 29° ENE 03:28:06 10° SE visible
29 Jun 4.4 05:01:21 10° NW 05:05:45 27° W 05:10:06 10° SSW visible
30 Jun 6.0 02:45:57 10° NNE 02:49:29 18° ENE 02:53:01 10° ESE visible
30 Jun 3.8 04:26:59 10° NNW 04:31:59 46° WSW 04:36:57 10° S visible
01 Jul 6.4 02:14:00 10° NE 02:15:16 11° ENE 02:16:32 10° ENE visible
01 Jul 3.4 03:52:54 10° NNW 03:58:10 80° WSW 04:03:04 12° S visible
02 Jul 3.9 03:19:04 10° N 03:24:17 61° ENE 03:28:05 18° SSE visible
02 Jul 5.3 05:03:56 10° WNW 05:05:54 12° W 05:07:52 10° WSW visible
03 Jul 4.8 02:45:27 10° N 02:50:18 36° ENE 02:53:26 19° SE visible
03 Jul 4.8 04:28:23 10° NW 04:32:15 21° W 04:33:49 18° WSW visible
